Time,TemperatureF,DewpointF,PressureIn,WindDirection,WindDirectionDegrees,WindSpeedMPH,WindSpeedGustMPH,Humidity,HourlyPrecipIn,Conditions,Clouds,dailyrainin,SoftwareType,DateUTC
2013-04-16 00:00:00,42.1,14.4,30.36,SSE,161,0.0,0.0,32,0.00,,---,0.00,VWS V14.01,2013-04-16 04:00:00,
2013-04-16 00:02:00,41.9,14.9,30.36,SSE,161,0.0,0.0,33,0.00,,---,0.00,VWS V14.01,2013-04-16 04:02:00,
2013-04-16 00:07:00,41.5,15.9,30.36,SSE,161,0.0,0.0,35,0.00,,---,0.00,VWS V14.01,2013-04-16 04:07:00,
2013-04-16 00:12:00,41.5,16.6,30.36,SSE,161,0.0,0.0,36,0.00,,---,0.00,VWS V14.01,2013-04-16 04:12:00,
2013-04-16 00:18:00,41.4,16.4,30.36,SSE,161,0.0,0.0,36,0.00,,---,0.00,VWS V14.01,2013-04-16 04:18:00,
2013-04-16 00:23:00,41.2,16.9,30.36,SSE,162,0.0,0.0,37,0.00,,---,0.00,VWS V14.01,2013-04-16 04:23:00,
2013-04-16 00:28:00,41.2,17.5,30.36,SSE,161,0.0,0.0,38,0.00,,---,0.00,VWS V14.01,2013-04-16 04:28:00,
2013-04-16 00:33:00,41.2,17.5,30.36,SSE,161,0.0,0.0,38,0.00,,---,0.00,VWS V14.01,2013-04-16 04:33:00,
2013-04-16 00:38:00,41.0,17.4,30.36,SSE,161,0.0,0.0,38,0.00,,---,0.00,VWS V14.01,2013-04-16 04:38:00,
2013-04-16 00:43:00,40.8,17.2,30.36,SSE,161,0.0,0.0,38,0.00,,---,0.00,VWS V14.01,2013-04-16 04:43:00,
2013-04-16 00:48:00,40.6,17.6,30.36,SSE,161,0.0,0.0,39,0.00,,---,0.00,VWS V14.01,2013-04-16 04:48:00,
2013-04-16 00:53:00,40.5,17.5,30.36,SSE,161,0.0,0.0,39,0.00,,---,0.00,VWS V14.01,2013-04-16 04:53:00,
2013-04-16 00:58:00,40.5,17.5,30.36,SSE,161,0.0,0.0,39,0.00,,---,0.00,VWS V14.01,2013-04-16 04:58:00,
2013-04-16 01:03:00,40.3,17.3,30.36,SSE,162,0.0,0.0,39,0.00,,---,0.00,VWS V14.01,2013-04-16 05:03:00,
2013-04-16 01:08:00,40.3,17.3,30.36,SSE,161,0.0,0.0,39,0.00,,---,0.00,VWS V14.01,2013-04-16 05:08:00,
2013-04-16 01:13:00,40.3,17.3,30.36,SSE,161,0.0,0.0,39,0.00,,---,0.00,VWS V14.01,2013-04-16 05:13:00,
2013-04-16 01:18:00,40.5,17.5,30.36,SSE,162,0.0,0.0,39,0.00,,---,0.00,VWS V14.01,2013-04-16 05:18:00,
2013-04-16 01:23:00,40.5,17.5,30.36,SSE,162,0.0,0.0,39,0.00,,---,0.00,VWS V14.01,2013-04-16 05:23:00,
2013-04-16 01:28:00,40.3,17.9,30.36,SSE,161,0.0,0.0,40,0.00,,---,0.00,VWS V14.01,2013-04-16 05:28:00,
2013-04-16 01:33:00,40.3,17.9,30.36,SSE,161,0.0,0.0,40,0.00,,---,0.00,VWS V14.01,2013-04-16 05:33:00,
2013-04-16 01:38:00,40.3,17.9,30.36,SSE,161,0.0,0.0,40,0.00,,---,0.00,VWS V14.01,2013-04-16 05:38:00,
2013-04-16 01:43:00,40.3,17.9,30.36,SSE,161,0.0,0.0,40,0.00,,---,0.00,VWS V14.01,2013-04-16 05:43:00,
2013-04-16 01:48:00,40.1,17.7,30.36,SSE,161,0.0,0.0,40,0.00,,---,0.00,VWS V14.01,2013-04-16 05:48:00,
2013-04-16 01:53:00,39.9,18.1,30.36,SSE,161,0.0,0.0,41,0.00,,---,0.00,VWS V14.01,2013-04-16 05:53:00,
2013-04-16 01:58:00,39.7,18.0,30.36,SSE,162,0.0,0.0,41,0.00,,---,0.00,VWS V14.01,2013-04-16 05:58:00,
2013-04-16 02:03:00,39.7,18.0,30.36,SSE,162,0.0,0.0,41,0.00,,---,0.00,VWS V14.01,2013-04-16 06:03:00,
2013-04-16 02:08:00,39.6,17.8,30.36,SSE,161,0.0,0.0,41,0.00,,---,0.00,VWS V14.01,2013-04-16 06:08:00,
2013-04-16 02:13:00,39.2,17.5,30.36,SSE,161,0.0,0.0,41,0.00,,---,0.00,VWS V14.01,2013-04-16 06:13:00,
2013-04-16 02:18:00,39.0,17.3,30.36,SSE,161,0.0,0.0,41,0.00,,---,0.00,VWS V14.01,2013-04-16 06:18:00,
2013-04-16 02:23:00,38.7,17.0,30.36,SSE,161,0.0,0.0,41,0.00,,---,0.00,VWS V14.01,2013-04-16 06:23:00,
2013-04-16 02:28:00,38.7,17.6,30.36,SSE,161,0.0,0.0,42,0.00,,---,0.00,VWS V14.01,2013-04-16 06:28:00,
2013-04-16 02:33:00,38.7,18.1,30.36,SSE,161,0.0,0.0,43,0.00,,---,0.00,VWS V14.01,2013-04-16 06:33:00,
2013-04-16 02:38:00,38.7,18.6,30.36,SSE,161,0.0,0.0,44,0.00,,---,0.00,VWS V14.01,2013-04-16 06:38:00,
2013-04-16 02:43:00,38.8,18.8,30.36,SSE,161,0.0,0.0,44,0.00,,---,0.00,VWS V14.01,2013-04-16 06:43:00,
2013-04-16 02:48:00,38.8,18.8,30.36,SSE,161,0.0,0.0,44,0.00,,---,0.00,VWS V14.01,2013-04-16 06:48:00,
2013-04-16 02:53:00,39.2,19.1,30.36,SSE,161,0.0,0.0,44,0.00,,---,0.00,VWS V14.01,2013-04-16 06:53:00,
2013-04-16 02:58:00,39.4,19.3,30.36,SSE,161,0.0,0.0,44,0.00,,---,0.00,VWS V14.01,2013-04-16 06:58:00,
2013-04-16 03:03:00,39.6,20.0,30.36,SSE,161,0.0,0.0,45,0.00,,---,0.00,VWS V14.01,2013-04-16 07:03:00,
2013-04-16 03:08:00,39.6,20.0,30.36,SSE,162,0.0,0.0,45,0.00,,---,0.00,VWS V14.01,2013-04-16 07:08:00,
2013-04-16 03:13:00,39.7,19.6,30.36,SSE,161,0.0,0.0,44,0.00,,---,0.00,VWS V14.01,2013-04-16 07:13:00,
2013-04-16 03:18:00,39.9,19.8,30.36,SSE,161,0.0,0.0,44,0.00,,---,0.00,VWS V14.01,2013-04-16 07:18:00,
2013-04-16 03:23:00,39.9,19.8,30.36,SSE,162,0.0,0.0,44,0.00,,---,0.00,VWS V14.01,2013-04-16 07:23:00,
2013-04-16 03:28:00,40.1,20.0,30.36,SSE,161,0.0,0.0,44,0.00,,---,0.00,VWS V14.01,2013-04-16 07:28:00,
2013-04-16 03:33:00,39.9,19.8,30.36,SSE,161,0.0,0.0,44,0.00,,---,0.00,VWS V14.01,2013-04-16 07:33:00,
2013-04-16 03:38:00,39.9,19.8,30.36,SSE,161,0.0,0.0,44,0.00,,---,0.00,VWS V14.01,2013-04-16 07:38:00,
2013-04-16 03:43:00,40.1,20.0,30.36,SSE,161,0.0,0.0,44,0.00,,---,0.00,VWS V14.01,2013-04-16 07:43:00,
2013-04-16 03:48:00,40.3,20.1,30.36,SSE,161,0.0,0.0,44,0.00,,---,0.00,VWS V14.01,2013-04-16 07:48:00,
2013-04-16 03:53:00,40.3,20.1,30.36,SSE,161,0.0,0.0,44,0.00,,---,0.00,VWS V14.01,2013-04-16 07:53:00,
2013-04-16 03:58:00,40.3,20.1,30.36,SSE,161,0.0,0.0,44,0.00,,---,0.00,VWS V14.01,2013-04-16 07:58:00,
2013-04-16 04:03:00,40.3,20.1,30.36,SSE,161,0.0,0.0,44,0.00,,---,0.00,VWS V14.01,2013-04-16 08:03:00,
2013-04-16 04:08:00,40.5,20.8,30.36,SSE,161,0.0,0.0,45,0.00,,---,0.00,VWS V14.01,2013-04-16 08:08:00,
2013-04-16 04:13:00,40.5,20.8,30.36,SSE,161,0.0,0.0,45,0.00,,---,0.00,VWS V14.01,2013-04-16 08:13:00,
2013-04-16 04:18:00,40.5,21.3,30.36,SSE,161,0.0,2.7,46,0.00,,---,0.00,VWS V14.01,2013-04-16 08:18:00,
2013-04-16 04:23:00,40.6,21.5,30.36,SSE,161,2.7,2.7,46,0.00,,---,0.00,VWS V14.01,2013-04-16 08:23:00,
2013-04-16 04:28:00,40.6,21.5,30.36,SSE,161,0.0,2.7,46,0.00,,---,0.00,VWS V14.01,2013-04-16 08:28:00,
2013-04-16 04:33:00,40.6,21.0,30.36,SSE,161,0.0,0.0,45,0.00,,---,0.00,VWS V14.01,2013-04-16 08:33:00,
2013-04-16 04:38:00,40.6,21.0,30.36,SSE,161,0.0,0.0,45,0.00,,---,0.00,VWS V14.01,2013-04-16 08:38:00,
2013-04-16 04:43:00,40.6,21.0,30.36,SSE,161,0.0,0.0,45,0.00,,---,0.00,VWS V14.01,2013-04-16 08:43:00,
2013-04-16 04:48:00,40.8,21.1,30.36,SSE,161,0.0,0.0,45,0.00,,---,0.00,VWS V14.01,2013-04-16 08:48:00,
2013-04-16 04:54:00,41.0,21.3,30.36,SSE,161,0.0,0.0,45,0.00,,---,0.00,VWS V14.01,2013-04-16 08:54:00,
2013-04-16 04:59:00,41.0,21.3,30.36,SSE,161,0.0,0.0,45,0.00,,---,0.00,VWS V14.01,2013-04-16 08:59:00,
2013-04-16 05:04:00,41.0,21.3,30.36,SSE,161,0.0,0.0,45,0.00,,---,0.00,VWS V14.01,2013-04-16 09:04:00,
2013-04-16 05:09:00,41.0,21.3,30.36,SSE,161,0.0,0.0,45,0.00,,---,0.00,VWS V14.01,2013-04-16 09:09:00,
2013-04-16 05:14:00,41.0,21.3,30.36,SSE,161,0.0,0.0,45,0.00,,---,0.00,VWS V14.01,2013-04-16 09:14:00,
2013-04-16 05:19:00,41.0,21.3,30.36,SSE,161,0.0,0.0,45,0.00,,---,0.00,VWS V14.01,2013-04-16 09:19:00,
2013-04-16 05:24:00,40.8,21.1,30.36,SSE,161,0.0,0.0,45,0.00,,---,0.00,VWS V14.01,2013-04-16 09:24:00,
2013-04-16 05:29:00,40.8,22.2,30.36,SSE,161,0.0,2.7,47,0.00,,---,0.00,VWS V14.01,2013-04-16 09:29:00,
2013-04-16 05:34:00,41.0,22.8,30.36,SSE,161,0.0,0.0,48,0.00,,---,0.00,VWS V14.01,2013-04-16 09:34:00,
2013-04-16 05:39:00,41.2,23.0,30.36,SSE,161,0.0,0.0,48,0.00,,---,0.00,VWS V14.01,2013-04-16 09:39:00,
2013-04-16 05:44:00,41.2,23.5,30.36,SSE,161,0.0,0.0,49,0.00,,---,0.00,VWS V14.01,2013-04-16 09:44:00,
2013-04-16 05:49:00,41.2,23.5,30.36,SSE,161,0.0,0.0,49,0.00,,---,0.00,VWS V14.01,2013-04-16 09:49:00,
2013-04-16 05:54:00,41.4,23.6,30.36,SSE,161,0.0,0.0,49,0.00,,---,0.00,VWS V14.01,2013-04-16 09:54:00,
2013-04-16 05:59:00,41.4,24.1,30.36,SSE,161,0.0,0.0,50,0.00,,---,0.00,VWS V14.01,2013-04-16 09:59:00,
2013-04-16 06:04:00,41.4,24.1,30.36,SSE,161,0.0,0.0,50,0.00,,---,0.00,VWS V14.01,2013-04-16 10:04:00,
2013-04-16 06:09:00,41.4,24.1,30.36,SSE,161,0.0,0.0,50,0.00,,---,0.00,VWS V14.01,2013-04-16 10:09:00,
2013-04-16 06:14:00,41.4,24.1,30.36,SSE,161,0.0,0.0,50,0.00,,---,0.00,VWS V14.01,2013-04-16 10:14:00,
2013-04-16 06:19:00,41.4,24.1,30.36,SSE,161,0.0,0.0,50,0.00,,---,0.00,VWS V14.01,2013-04-16 10:19:00,
2013-04-16 06:24:00,41.5,24.3,30.36,SSE,162,0.0,0.0,50,0.00,,---,0.00,VWS V14.01,2013-04-16 10:24:00,
2013-04-16 06:29:00,41.5,24.8,30.36,SSE,162,0.0,0.0,51,0.00,,---,0.00,VWS V14.01,2013-04-16 10:29:00,
2013-04-16 06:34:00,41.5,24.8,30.36,SSE,161,0.0,0.0,51,0.00,,---,0.00,VWS V14.01,2013-04-16 10:34:00,
2013-04-16 06:39:00,41.5,24.8,30.36,SSE,161,0.0,2.7,51,0.00,,---,0.00,VWS V14.01,2013-04-16 10:39:00,
2013-04-16 06:44:00,41.7,25.4,30.36,SSE,161,0.0,0.0,52,0.00,,---,0.00,VWS V14.01,2013-04-16 10:44:00,
2013-04-16 06:49:00,41.9,25.6,30.36,SSE,161,0.0,0.0,52,0.00,,---,0.00,VWS V14.01,2013-04-16 10:49:00,
2013-04-16 06:54:00,42.1,25.7,30.36,SSE,161,0.0,0.0,52,0.00,,---,0.00,VWS V14.01,2013-04-16 10:54:00,
2013-04-16 07:00:00,42.4,26.1,30.36,SSE,161,0.0,0.0,52,0.00,,---,0.00,VWS V14.01,2013-04-16 11:00:00,
2013-04-16 07:05:00,42.6,26.2,30.36,SSE,161,0.0,2.7,52,0.00,,---,0.00,VWS V14.01,2013-04-16 11:05:00,
2013-04-16 07:10:00,43.2,28.1,30.36,SSE,162,0.0,3.6,55,0.00,,---,0.00,VWS V14.01,2013-04-16 11:10:00,
2013-04-16 07:15:00,43.5,28.9,30.36,SSE,161,0.0,0.0,56,0.00,,---,0.00,VWS V14.01,2013-04-16 11:15:00,
2013-04-16 07:20:00,43.7,29.0,30.36,SSE,161,0.0,3.1,56,0.00,,---,0.00,VWS V14.01,2013-04-16 11:20:00,
2013-04-16 07:25:00,44.1,29.8,30.36,SSE,162,4.0,4.0,57,0.00,,---,0.00,VWS V14.01,2013-04-16 11:25:00,
2013-04-16 07:30:00,44.4,30.2,30.36,SSE,163,0.0,0.0,57,0.00,,---,0.00,VWS V14.01,2013-04-16 11:30:00,
2013-04-16 07:35:00,44.8,30.9,30.36,SSE,164,0.0,4.0,58,0.00,,---,0.00,VWS V14.01,2013-04-16 11:35:00,
2013-04-16 07:40:00,45.1,31.3,30.36,SSE,164,4.5,4.5,58,0.00,,---,0.00,VWS V14.01,2013-04-16 11:40:00,
2013-04-16 07:45:00,45.3,31.9,30.36,SSE,163,0.0,0.0,59,0.00,,---,0.00,VWS V14.01,2013-04-16 11:45:00,
2013-04-16 07:50:00,45.5,32.0,30.36,SSE,164,0.0,3.1,59,0.00,,---,0.00,VWS V14.01,2013-04-16 11:50:00,
2013-04-16 07:55:00,45.9,31.9,30.36,SSE,164,0.0,0.0,58,0.00,,---,0.00,VWS V14.01,2013-04-16 11:55:00,
2013-04-16 08:00:00,46.0,32.1,30.36,SSE,163,3.1,5.4,58,0.00,,---,0.00,VWS V14.01,2013-04-16 12:00:00,
2013-04-16 08:05:00,46.2,32.3,30.36,SSE,163,4.9,4.9,58,0.00,,---,0.00,VWS V14.01,2013-04-16 12:05:00,
2013-04-16 08:10:00,46.4,32.4,30.36,SSE,164,0.0,3.1,58,0.00,,---,0.00,VWS V14.01,2013-04-16 12:10:00,
2013-04-16 08:15:00,46.8,32.3,30.36,SSE,164,0.0,0.0,57,0.00,,---,0.00,VWS V14.01,2013-04-16 12:15:00,
2013-04-16 08:20:00,47.1,32.7,30.36,SSE,167,3.6,4.9,57,0.00,,---,0.00,VWS V14.01,2013-04-16 12:20:00,
2013-04-16 08:25:00,47.5,32.6,30.36,SSE,167,3.1,4.5,56,0.00,,---,0.00,VWS V14.01,2013-04-16 12:25:00,
2013-04-16 08:30:00,47.8,31.5,30.36,SSE,152,4.0,5.4,53,0.00,,---,0.00,VWS V14.01,2013-04-16 12:30:00,
2013-04-16 08:35:00,48.2,31.4,30.36,SSE,151,0.0,3.1,52,0.00,,---,0.00,VWS V14.01,2013-04-16 12:35:00,
2013-04-16 08:40:00,48.7,31.9,30.36,SSE,151,3.6,4.9,52,0.00,,---,0.00,VWS V14.01,2013-04-16 12:40:00,
2013-04-16 08:45:00,49.3,31.0,30.36,SSE,157,2.7,7.4,49,0.00,,---,0.00,VWS V14.01,2013-04-16 12:45:00,
2013-04-16 08:50:00,50.0,31.6,30.36,SW,215,0.0,4.9,49,0.00,,---,0.00,VWS V14.01,2013-04-16 12:50:00,
2013-04-16 08:55:00,50.7,31.2,30.36,SW,230,4.9,5.8,47,0.00,,---,0.00,VWS V14.01,2013-04-16 12:55:00,
2013-04-16 09:00:00,51.8,31.1,30.36,SSW,201,5.4,5.4,45,0.00,,---,0.00,VWS V14.01,2013-04-16 13:00:00,
2013-04-16 09:05:00,52.5,30.1,30.36,SSW,194,2.7,4.5,42,0.00,,---,0.00,VWS V14.01,2013-04-16 13:05:00,
2013-04-16 09:13:00,53.4,29.1,30.33,SW,220,0.0,7.8,39,0.00,,---,0.00,VWS V14.01,2013-04-16 13:13:00,
2013-04-16 09:22:00,54.1,28.5,30.36,SSE,150,6.3,6.3,37,0.00,,---,0.00,VWS V14.01,2013-04-16 13:22:00,
2013-04-16 09:27:00,54.0,28.3,30.36,WSW,242,0.0,8.7,37,0.00,,---,0.00,VWS V14.01,2013-04-16 13:27:00,
2013-04-16 09:32:00,54.1,28.5,30.36,WSW,250,3.1,8.7,37,0.00,,---,0.00,VWS V14.01,2013-04-16 13:32:00,
2013-04-16 09:37:00,54.5,28.8,30.36,SW,224,4.9,9.2,37,0.00,,---,0.00,VWS V14.01,2013-04-16 13:37:00,
2013-04-16 09:42:00,55.0,29.3,30.36,South,184,5.4,5.8,37,0.00,,---,0.00,VWS V14.01,2013-04-16 13:42:00,
2013-04-16 09:47:00,55.4,28.9,30.36,SSW,197,2.7,10.5,36,0.00,,---,0.00,VWS V14.01,2013-04-16 13:47:00,
2013-04-16 09:52:00,55.8,29.2,30.33,SE,143,4.9,6.7,36,0.00,,---,0.00,VWS V14.01,2013-04-16 13:52:00,
2013-04-16 09:57:00,56.1,29.5,30.33,SSW,212,7.4,7.4,36,0.00,,---,0.00,VWS V14.01,2013-04-16 13:57:00,
2013-04-16 10:02:00,56.5,29.2,30.33,SSW,205,0.0,6.3,35,0.00,,---,0.00,VWS V14.01,2013-04-16 14:02:00,
2013-04-16 10:07:00,56.8,29.5,30.36,SSW,205,0.0,7.8,35,0.00,,---,0.00,VWS V14.01,2013-04-16 14:07:00,
2013-04-16 10:12:00,57.2,29.1,30.36,SE,126,0.0,9.2,34,0.00,,---,0.00,VWS V14.01,2013-04-16 14:12:00,
2013-04-16 10:17:00,57.2,29.8,30.36,SW,218,8.3,9.2,35,0.00,,---,0.00,VWS V14.01,2013-04-16 14:17:00,
2013-04-16 10:23:00,57.2,28.4,30.33,ENE,73,4.0,8.3,33,0.00,,---,0.00,VWS V14.01,2013-04-16 14:23:00,
2013-04-16 10:28:00,57.2,28.4,30.33,SE,140,8.3,9.2,33,0.00,,---,0.00,VWS V14.01,2013-04-16 14:28:00,
2013-04-16 10:33:00,57.2,28.4,30.33,SSE,147,3.1,9.2,33,0.00,,---,0.00,VWS V14.01,2013-04-16 14:33:00,
2013-04-16 10:38:00,56.8,27.3,30.33,SSW,203,5.4,11.2,32,0.00,,---,0.00,VWS V14.01,2013-04-16 14:38:00,
2013-04-16 10:43:00,57.0,29.0,30.33,SW,227,8.3,10.5,34,0.00,,---,0.00,VWS V14.01,2013-04-16 14:43:00,
2013-04-16 10:48:00,57.0,28.2,30.33,SSE,166,4.9,9.2,33,0.00,,---,0.00,VWS V14.01,2013-04-16 14:48:00,
2013-04-16 10:53:00,57.4,28.5,30.33,SSW,201,0.0,8.3,33,0.00,,---,0.00,VWS V14.01,2013-04-16 14:53:00,
2013-04-16 10:58:00,57.7,27.3,30.33,SSW,194,4.5,9.6,31,0.00,,---,0.00,VWS V14.01,2013-04-16 14:58:00,
2013-04-16 11:03:00,57.7,27.3,30.33,East,100,0.0,9.2,31,0.00,,---,0.00,VWS V14.01,2013-04-16 15:03:00,
2013-04-16 11:08:00,57.9,27.5,30.33,South,171,4.9,7.8,31,0.00,,---,0.00,VWS V14.01,2013-04-16 15:08:00,
2013-04-16 11:13:00,58.3,27.0,30.33,WSW,254,6.7,11.0,30,0.00,,---,0.00,VWS V14.01,2013-04-16 15:13:00,
2013-04-16 11:18:00,58.8,26.6,30.33,SE,132,4.0,7.8,29,0.00,,---,0.00,VWS V14.01,2013-04-16 15:18:00,
2013-04-16 11:23:00,59.2,26.1,30.33,SSE,147,6.9,11.6,28,0.00,,---,0.00,VWS V14.01,2013-04-16 15:23:00,
2013-04-16 11:28:00,59.2,26.1,30.33,SE,136,6.9,15.2,28,0.00,,---,0.00,VWS V14.01,2013-04-16 15:28:00,
2013-04-16 11:33:00,59.5,26.4,30.33,SSE,165,4.9,10.5,28,0.00,,---,0.00,VWS V14.01,2013-04-16 15:33:00,
2013-04-16 11:38:00,60.1,26.0,30.30,SSW,198,4.0,11.0,27,0.00,,---,0.00,VWS V14.01,2013-04-16 15:38:00,
2013-04-16 11:43:00,60.4,25.4,30.30,SE,129,5.4,11.2,26,0.00,,---,0.00,VWS V14.01,2013-04-16 15:43:00,
2013-04-16 11:48:00,61.3,27.1,30.30,WSW,246,8.7,11.2,27,0.00,,---,0.00,VWS V14.01,2013-04-16 15:48:00,
2013-04-16 11:53:00,62.1,25.9,30.30,SW,233,6.7,12.5,25,0.00,,---,0.00,VWS V14.01,2013-04-16 15:53:00,
2013-04-16 11:58:00,62.8,25.5,30.30,SSE,152,7.8,13.0,24,0.00,,---,0.00,VWS V14.01,2013-04-16 15:58:00,
2013-04-16 12:03:00,63.0,25.6,30.30,SSW,212,7.8,9.6,24,0.00,,---,0.00,VWS V14.01,2013-04-16 16:03:00,
2013-04-16 12:08:00,63.0,26.6,30.27,South,179,4.5,10.1,25,0.00,,---,0.00,VWS V14.01,2013-04-16 16:08:00,
2013-04-16 12:13:00,63.9,26.4,30.27,South,172,7.8,13.9,24,0.00,,---,0.00,VWS V14.01,2013-04-16 16:13:00,
2013-04-16 12:18:00,64.4,25.8,30.27,South,183,6.3,13.4,23,0.00,,---,0.00,VWS V14.01,2013-04-16 16:18:00,
2013-04-16 12:23:00,64.2,25.7,30.27,SE,142,6.9,14.8,23,0.00,,---,0.00,VWS V14.01,2013-04-16 16:23:00,
2013-04-16 12:28:00,64.2,26.7,30.27,SSW,201,4.5,13.4,24,0.00,,---,0.00,VWS V14.01,2013-04-16 16:28:00,
2013-04-16 12:33:00,64.8,27.2,30.27,SW,219,7.4,10.5,24,0.00,,---,0.00,VWS V14.01,2013-04-16 16:33:00,
2013-04-16 12:38:00,65.7,26.9,30.27,WSW,258,7.8,13.0,23,0.00,,---,0.00,VWS V14.01,2013-04-16 16:38:00,
2013-04-16 12:43:00,65.5,26.7,30.27,SSW,213,6.9,11.2,23,0.00,,---,0.00,VWS V14.01,2013-04-16 16:43:00,
2013-04-16 12:48:00,65.5,26.7,30.27,South,171,5.8,12.1,23,0.00,,---,0.00,VWS V14.01,2013-04-16 16:48:00,
2013-04-16 12:53:00,65.3,26.6,30.27,SE,143,13.0,13.0,23,0.00,,---,0.00,VWS V14.01,2013-04-16 16:53:00,
2013-04-16 12:58:00,65.5,26.7,30.27,SSE,166,5.8,9.6,23,0.00,,---,0.00,VWS V14.01,2013-04-16 16:58:00,
2013-04-16 13:03:00,66.6,27.6,30.27,WSW,241,4.9,12.1,23,0.00,,---,0.00,VWS V14.01,2013-04-16 17:03:00,
2013-04-16 13:08:00,66.2,27.3,30.27,SSW,210,4.9,14.8,23,0.00,,---,0.00,VWS V14.01,2013-04-16 17:08:00,
2013-04-16 13:13:00,66.2,27.3,30.27,SW,222,4.9,11.0,23,0.00,,---,0.00,VWS V14.01,2013-04-16 17:13:00,
2013-04-16 13:18:00,66.0,27.2,30.27,SE,129,11.6,15.4,23,0.00,,---,0.00,VWS V14.01,2013-04-16 17:18:00,
2013-04-16 13:23:00,66.0,27.2,30.24,SSW,212,8.3,11.6,23,0.00,,---,0.00,VWS V14.01,2013-04-16 17:23:00,
2013-04-16 13:28:00,66.4,27.5,30.24,SW,234,6.3,13.0,23,0.00,,---,0.00,VWS V14.01,2013-04-16 17:28:00,
2013-04-16 13:33:00,65.1,26.4,30.24,West,266,11.2,12.5,23,0.00,,---,0.00,VWS V14.01,2013-04-16 17:33:00,
2013-04-16 13:38:00,65.8,27.0,30.27,South,176,6.9,11.2,23,0.00,,---,0.00,VWS V14.01,2013-04-16 17:38:00,
2013-04-16 13:43:00,65.8,27.0,30.27,West,277,8.7,12.5,23,0.00,,---,0.00,VWS V14.01,2013-04-16 17:43:00,
2013-04-16 13:48:00,66.2,27.3,30.27,SSE,167,3.6,11.2,23,0.00,,---,0.00,VWS V14.01,2013-04-16 17:48:00,
2013-04-16 13:53:00,67.1,28.1,30.27,South,182,3.6,11.2,23,0.00,,---,0.00,VWS V14.01,2013-04-16 17:53:00,
2013-04-16 13:58:00,67.6,27.5,30.27,SW,230,2.7,10.5,22,0.00,,---,0.00,VWS V14.01,2013-04-16 17:58:00,
2013-04-16 14:03:00,67.6,27.5,30.27,SE,135,3.1,13.0,22,0.00,,---,0.00,VWS V14.01,2013-04-16 18:03:00,
2013-04-16 14:08:00,66.2,27.3,30.27,SSE,150,4.0,10.5,23,0.00,,---,0.00,VWS V14.01,2013-04-16 18:08:00,
2013-04-16 14:13:00,65.5,26.7,30.27,SW,215,7.4,13.4,23,0.00,,---,0.00,VWS V14.01,2013-04-16 18:13:00,
2013-04-16 14:18:00,64.2,26.7,30.27,SSW,197,9.6,14.3,24,0.00,,---,0.00,VWS V14.01,2013-04-16 18:18:00,
2013-04-16 14:23:00,64.0,26.5,30.27,SSE,149,8.7,13.9,24,0.00,,---,0.00,VWS V14.01,2013-04-16 18:23:00,
2013-04-16 14:28:00,64.4,26.9,30.27,SSE,149,4.5,15.2,24,0.00,,---,0.00,VWS V14.01,2013-04-16 18:28:00,
2013-04-16 14:33:00,63.7,26.2,30.27,SSW,202,5.4,12.1,24,0.00,,---,0.00,VWS V14.01,2013-04-16 18:33:00,
2013-04-16 14:38:00,63.1,26.8,30.24,SE,145,7.4,16.3,25,0.00,,---,0.00,VWS V14.01,2013-04-16 18:38:00,
2013-04-16 14:43:00,62.6,26.3,30.24,SW,235,6.3,11.2,25,0.00,,---,0.00,VWS V14.01,2013-04-16 18:43:00,
2013-04-16 14:49:00,61.9,26.6,30.24,SW,221,4.0,11.2,26,0.00,,---,0.00,VWS V14.01,2013-04-16 18:49:00,
2013-04-16 14:53:00,61.3,27.1,30.24,South,184,6.9,11.2,27,0.00,,---,0.00,VWS V14.01,2013-04-16 18:53:00,
2013-04-16 14:59:00,60.8,30.8,30.24,West,278,6.3,9.2,32,0.00,,---,0.00,VWS V14.01,2013-04-16 18:59:00,
2013-04-16 15:04:00,60.1,31.6,30.24,SSW,212,6.9,11.2,34,0.00,,---,0.00,VWS V14.01,2013-04-16 19:04:00,
2013-04-16 15:09:00,59.5,31.9,30.24,SSW,200,5.4,10.5,35,0.00,,---,0.00,VWS V14.01,2013-04-16 19:09:00,
2013-04-16 15:14:00,59.2,33.0,30.24,South,171,3.1,6.3,37,0.00,,---,0.00,VWS V14.01,2013-04-16 19:14:00,
2013-04-16 15:19:00,58.3,33.5,30.24,SW,214,5.8,11.2,39,0.00,,---,0.00,VWS V14.01,2013-04-16 19:19:00,
2013-04-16 15:24:00,58.1,35.7,30.24,SSE,158,2.7,5.8,43,0.00,,---,0.00,VWS V14.01,2013-04-16 19:24:00,
2013-04-16 15:29:00,57.9,36.2,30.24,SSE,167,2.7,5.4,44,0.00,,---,0.00,VWS V14.01,2013-04-16 19:29:00,
2013-04-16 15:34:00,57.6,36.4,30.24,SSW,206,5.4,6.9,45,0.00,,---,0.00,VWS V14.01,2013-04-16 19:34:00,
2013-04-16 15:39:00,57.6,36.4,30.21,SSW,196,3.6,6.7,45,0.00,,---,0.00,VWS V14.01,2013-04-16 19:39:00,
2013-04-16 15:44:00,57.6,37.0,30.21,SW,224,5.4,6.7,46,0.00,,---,0.00,VWS V14.01,2013-04-16 19:44:00,
2013-04-16 15:49:00,57.7,37.1,30.21,SW,222,4.9,7.8,46,0.00,,---,0.00,VWS V14.01,2013-04-16 19:49:00,
2013-04-16 15:54:00,57.9,36.7,30.21,SE,145,4.9,9.2,45,0.00,,---,0.00,VWS V14.01,2013-04-16 19:54:00,
2013-04-16 15:59:00,58.1,37.5,30.21,SE,144,4.0,6.9,46,0.00,,---,0.00,VWS V14.01,2013-04-16 19:59:00,
2013-04-16 16:04:00,58.1,36.9,30.21,SW,236,4.5,9.2,45,0.00,,---,0.00,VWS V14.01,2013-04-16 20:04:00,
2013-04-16 16:09:00,58.3,37.0,30.21,SSW,199,4.0,11.2,45,0.00,,---,0.00,VWS V14.01,2013-04-16 20:09:00,
2013-04-16 16:14:00,58.6,37.4,30.21,SW,228,3.6,7.8,45,0.00,,---,0.00,VWS V14.01,2013-04-16 20:14:00,
2013-04-16 16:19:00,58.6,35.6,30.21,SSE,147,4.0,12.5,42,0.00,,---,0.00,VWS V14.01,2013-04-16 20:19:00,
2013-04-16 16:24:00,58.6,36.2,30.21,SSW,199,6.7,9.2,43,0.00,,---,0.00,VWS V14.01,2013-04-16 20:24:00,
2013-04-16 16:29:00,58.3,35.9,30.21,SSW,212,10.5,11.0,43,0.00,,---,0.00,VWS V14.01,2013-04-16 20:29:00,
2013-04-16 16:34:00,58.3,36.5,30.21,SSE,163,3.1,12.1,44,0.00,,---,0.00,VWS V14.01,2013-04-16 20:34:00,
2013-04-16 16:39:00,58.5,36.7,30.21,SSW,201,6.7,6.7,44,0.00,,---,0.00,VWS V14.01,2013-04-16 20:39:00,
2013-04-16 16:45:00,58.6,36.8,30.21,SE,137,3.6,4.0,44,0.00,,---,0.00,VWS V14.01,2013-04-16 20:45:00,
2013-04-16 16:50:00,58.6,36.8,30.21,South,184,4.0,6.7,44,0.00,,---,0.00,VWS V14.01,2013-04-16 20:50:00,
2013-04-16 16:55:00,58.6,36.8,30.21,SE,145,4.0,8.3,44,0.00,,---,0.00,VWS V14.01,2013-04-16 20:55:00,
2013-04-16 17:00:00,58.3,36.5,30.21,SSE,147,3.1,7.4,44,0.00,,---,0.00,VWS V14.01,2013-04-16 21:00:00,
2013-04-16 17:05:00,58.3,37.0,30.21,SSE,165,4.0,7.8,45,0.00,,---,0.00,VWS V14.01,2013-04-16 21:05:00,
2013-04-16 17:10:00,58.6,37.4,30.18,SSE,148,0.0,3.6,45,0.00,,---,0.00,VWS V14.01,2013-04-16 21:10:00,
2013-04-16 17:15:00,59.2,37.3,30.18,SSE,148,0.0,7.8,44,0.00,,---,0.00,VWS V14.01,2013-04-16 21:15:00,
2013-04-16 17:20:00,59.5,36.5,30.18,SSW,212,3.6,9.2,42,0.00,,---,0.00,VWS V14.01,2013-04-16 21:20:00,
2013-04-16 17:25:00,59.4,35.7,30.18,South,190,0.0,4.0,41,0.00,,---,0.00,VWS V14.01,2013-04-16 21:25:00,
2013-04-16 17:30:00,59.4,35.7,30.18,SW,218,9.2,9.2,41,0.00,,---,0.00,VWS V14.01,2013-04-16 21:30:00,
2013-04-16 17:35:00,59.4,36.3,30.18,SE,129,4.5,14.8,42,0.00,,---,0.00,VWS V14.01,2013-04-16 21:35:00,
2013-04-16 17:40:00,59.5,36.5,30.15,SW,215,3.1,8.7,42,0.00,,---,0.00,VWS V14.01,2013-04-16 21:40:00,
2013-04-16 17:45:00,60.1,36.3,30.15,SW,216,0.0,7.8,41,0.00,,---,0.00,VWS V14.01,2013-04-16 21:45:00,
2013-04-16 17:50:00,59.9,34.9,30.15,SW,235,4.9,13.0,39,0.00,,---,0.00,VWS V14.01,2013-04-16 21:50:00,
2013-04-16 17:55:00,59.9,36.2,30.15,SSW,212,0.0,10.5,41,0.00,,---,0.00,VWS V14.01,2013-04-16 21:55:00,
2013-04-16 18:00:00,59.9,36.2,30.15,SSE,165,4.9,6.7,41,0.00,,---,0.00,VWS V14.01,2013-04-16 22:00:00,
2013-04-16 18:05:00,59.4,36.3,30.15,WSW,239,3.6,7.8,42,0.00,,---,0.00,VWS V14.01,2013-04-16 22:05:00,
2013-04-16 18:10:00,59.2,36.7,30.15,SSW,195,5.4,5.4,43,0.00,,---,0.00,VWS V14.01,2013-04-16 22:10:00,
2013-04-16 18:15:00,58.8,37.0,30.15,SSW,200,2.7,7.4,44,0.00,,---,0.00,VWS V14.01,2013-04-16 22:15:00,
2013-04-16 18:20:00,58.6,37.4,30.15,SE,144,4.9,4.9,45,0.00,,---,0.00,VWS V14.01,2013-04-16 22:20:00,
2013-04-16 18:25:00,58.3,37.0,30.15,SSE,165,0.0,6.9,45,0.00,,---,0.00,VWS V14.01,2013-04-16 22:25:00,
2013-04-16 18:30:00,58.1,37.5,30.15,WSW,243,0.0,5.4,46,0.00,,---,0.00,VWS V14.01,2013-04-16 22:30:00,
2013-04-16 18:35:00,57.9,37.8,30.15,SW,219,9.2,9.2,47,0.00,,---,0.00,VWS V14.01,2013-04-16 22:35:00,
2013-04-16 18:40:00,57.9,37.8,30.15,South,170,5.4,7.4,47,0.00,,---,0.00,VWS V14.01,2013-04-16 22:40:00,
2013-04-16 18:45:00,57.9,38.4,30.15,SE,145,4.0,7.8,48,0.00,,---,0.00,VWS V14.01,2013-04-16 22:45:00,
2013-04-16 18:50:00,57.7,38.2,30.15,SW,215,5.8,7.8,48,0.00,,---,0.00,VWS V14.01,2013-04-16 22:50:00,
2013-04-16 18:55:00,57.7,38.2,30.12,WSW,239,5.4,6.9,48,0.00,,---,0.00,VWS V14.01,2013-04-16 22:55:00,
2013-04-16 19:00:00,57.7,38.2,30.12,SW,220,7.4,9.2,48,0.00,,---,0.00,VWS V14.01,2013-04-16 23:00:00,
2013-04-16 19:05:00,57.6,38.0,30.12,WSW,253,4.9,4.9,48,0.00,,---,0.00,VWS V14.01,2013-04-16 23:05:00,
2013-04-16 19:10:00,57.6,38.0,30.12,SSW,208,4.9,7.8,48,0.00,,---,0.00,VWS V14.01,2013-04-16 23:10:00,
2013-04-16 19:15:00,57.6,38.0,30.12,SSW,213,0.0,4.0,48,0.00,,---,0.00,VWS V14.01,2013-04-16 23:15:00,
2013-04-16 19:20:00,57.4,38.4,30.12,SSW,201,4.9,5.8,49,0.00,,---,0.00,VWS V14.01,2013-04-16 23:20:00,
2013-04-16 19:25:00,57.2,38.2,30.09,SSW,199,8.7,11.6,49,0.00,,---,0.00,VWS V14.01,2013-04-16 23:25:00,
2013-04-16 19:30:00,57.2,38.2,30.09,SW,226,7.8,13.9,49,0.00,,---,0.00,VWS V14.01,2013-04-16 23:30:00,
2013-04-16 19:35:00,57.2,38.2,30.09,WNW,286,5.8,6.3,49,0.00,,---,0.00,VWS V14.01,2013-04-16 23:35:00,
2013-04-16 19:40:00,57.2,38.2,30.15,WSW,245,4.0,11.2,49,0.00,,---,0.00,VWS V14.01,2013-04-16 23:40:00,
2013-04-16 19:45:00,57.2,38.2,30.15,SW,217,6.3,8.3,49,0.00,,---,0.00,VWS V14.01,2013-04-16 23:45:00,
2013-04-16 19:50:00,57.2,38.2,30.15,WSW,257,2.7,8.3,49,0.00,,---,0.00,VWS V14.01,2013-04-16 23:50:00,
2013-04-16 19:55:00,57.2,38.2,30.15,SW,229,2.7,4.0,49,0.00,,---,0.00,VWS V14.01,2013-04-16 23:55:00,
2013-04-16 20:00:00,57.2,38.2,30.15,WSW,240,0.0,3.6,49,0.00,,---,0.00,VWS V14.01,2013-04-17 00:00:00,
2013-04-16 20:05:00,57.2,38.2,30.15,SW,229,5.4,6.3,49,0.00,,---,0.00,VWS V14.01,2013-04-17 00:05:00,
2013-04-16 20:10:00,57.2,38.2,30.15,WSW,238,5.8,10.1,49,0.00,,---,0.00,VWS V14.01,2013-04-17 00:10:00,
2013-04-16 20:15:00,57.2,38.2,30.15,SW,226,9.6,9.6,49,0.00,,---,0.00,VWS V14.01,2013-04-17 00:15:00,
2013-04-16 20:20:00,57.2,37.7,30.15,SSW,212,6.7,7.8,48,0.00,,---,0.00,VWS V14.01,2013-04-17 00:20:00,
2013-04-16 20:25:00,57.2,37.7,30.15,SW,216,4.0,5.8,48,0.00,,---,0.00,VWS V14.01,2013-04-17 00:25:00,
2013-04-16 20:30:00,57.2,37.7,30.15,SSW,212,2.7,4.5,48,0.00,,---,0.00,VWS V14.01,2013-04-17 00:30:00,
2013-04-16 20:35:00,57.2,37.7,30.15,South,188,3.6,5.8,48,0.00,,---,0.00,VWS V14.01,2013-04-17 00:35:00,
2013-04-16 20:40:00,57.2,37.7,30.15,SW,225,5.4,10.1,48,0.00,,---,0.00,VWS V14.01,2013-04-17 00:40:00,
2013-04-16 20:45:00,57.2,37.7,30.15,SW,218,5.4,8.3,48,0.00,,---,0.00,VWS V14.01,2013-04-17 00:45:00,
2013-04-16 20:50:00,57.2,37.7,30.15,SW,225,4.5,5.8,48,0.00,,---,0.00,VWS V14.01,2013-04-17 00:50:00,
2013-04-16 20:55:00,57.2,37.7,30.15,SW,228,3.6,12.1,48,0.00,,---,0.00,VWS V14.01,2013-04-17 00:55:00,
2013-04-16 21:00:00,57.2,37.7,30.15,West,264,3.1,7.8,48,0.00,,---,0.00,VWS V14.01,2013-04-17 01:00:00,
2013-04-16 21:05:00,57.2,37.7,30.15,SW,225,3.6,5.4,48,0.00,,---,0.00,VWS V14.01,2013-04-17 01:05:00,
2013-04-16 21:10:00,57.2,37.7,30.15,SSW,205,4.5,7.8,48,0.00,,---,0.00,VWS V14.01,2013-04-17 01:10:00,
2013-04-16 21:15:00,57.2,38.2,30.15,SSE,154,9.2,9.2,49,0.00,,---,0.00,VWS V14.01,2013-04-17 01:15:00,
2013-04-16 21:20:00,57.0,38.6,30.12,SW,218,7.4,11.0,50,0.00,,---,0.00,VWS V14.01,2013-04-17 01:20:00,
2013-04-16 21:25:00,56.8,39.9,30.12,WSW,254,7.8,8.7,53,0.00,,---,0.00,VWS V14.01,2013-04-17 01:25:00,
2013-04-16 21:30:00,56.7,41.2,30.12,WSW,250,8.3,14.3,56,0.00,,---,0.00,VWS V14.01,2013-04-17 01:30:00,
2013-04-16 21:36:00,56.3,41.3,30.15,SW,220,5.8,6.9,57,0.00,,---,0.00,VWS V14.01,2013-04-17 01:36:00,
2013-04-16 21:41:00,56.3,41.7,30.15,West,270,5.4,11.2,58,0.00,,---,0.00,VWS V14.01,2013-04-17 01:41:00,
2013-04-16 21:45:00,56.1,42.0,30.15,SW,235,3.6,9.2,59,0.00,,---,0.00,VWS V14.01,2013-04-17 01:45:00,
2013-04-16 21:50:00,56.1,42.4,30.12,WSW,238,8.3,8.3,60,0.00,,---,0.00,VWS V14.01,2013-04-17 01:50:00,
2013-04-16 21:55:00,55.9,42.7,30.12,SW,232,3.1,8.3,61,0.00,,---,0.00,VWS V14.01,2013-04-17 01:55:00,
2013-04-16 22:00:00,55.9,43.1,30.12,West,273,4.0,11.6,62,0.00,,---,0.00,VWS V14.01,2013-04-17 02:00:00,
2013-04-16 22:05:00,55.9,43.5,30.12,WSW,241,4.0,7.8,63,0.00,,---,0.00,VWS V14.01,2013-04-17 02:05:00,
2013-04-16 22:11:00,55.9,43.5,30.12,SSW,206,4.5,5.8,63,0.00,,---,0.00,VWS V14.01,2013-04-17 02:11:00,
2013-04-16 22:16:00,55.8,43.4,30.12,WSW,237,7.4,7.4,63,0.00,,---,0.00,VWS V14.01,2013-04-17 02:16:00,
2013-04-16 22:21:00,55.8,43.8,30.12,WSW,253,4.9,11.0,64,0.00,,---,0.00,VWS V14.01,2013-04-17 02:21:00,
2013-04-16 22:26:00,55.6,43.6,30.12,SSW,213,6.3,8.3,64,0.00,,---,0.00,VWS V14.01,2013-04-17 02:26:00,
2013-04-16 22:31:00,55.6,43.6,30.12,SSW,201,5.4,6.7,64,0.00,,---,0.00,VWS V14.01,2013-04-17 02:31:00,
2013-04-16 22:36:00,55.6,44.0,30.12,SW,217,3.6,8.3,65,0.00,,---,0.00,VWS V14.01,2013-04-17 02:36:00,
2013-04-16 22:41:00,55.6,44.0,30.12,SW,214,7.4,8.7,65,0.00,,---,0.00,VWS V14.01,2013-04-17 02:41:00,
2013-04-16 22:46:00,55.4,43.8,30.12,SW,218,5.4,6.7,65,0.00,,---,0.00,VWS V14.01,2013-04-17 02:46:00,
2013-04-16 22:51:00,55.4,44.2,30.12,SW,217,5.4,9.2,66,0.00,,---,0.00,VWS V14.01,2013-04-17 02:51:00,
2013-04-16 22:56:00,55.4,44.2,30.12,SW,222,4.9,6.7,66,0.00,,---,0.00,VWS V14.01,2013-04-17 02:56:00,
2013-04-16 23:01:00,55.4,44.2,30.12,SSW,201,4.5,5.8,66,0.00,,---,0.00,VWS V14.01,2013-04-17 03:01:00,
2013-04-16 23:06:00,55.4,44.2,30.12,West,266,4.0,6.3,66,0.00,,---,0.00,VWS V14.01,2013-04-17 03:06:00,
2013-04-16 23:11:00,55.4,44.2,30.12,SW,221,4.9,7.8,66,0.00,,---,0.00,VWS V14.01,2013-04-17 03:11:00,
2013-04-16 23:16:00,55.4,44.6,30.12,WSW,245,4.9,6.7,67,0.00,,---,0.00,VWS V14.01,2013-04-17 03:16:00,
2013-04-16 23:21:00,55.2,44.1,30.12,SW,223,2.7,4.9,66,0.00,,---,0.00,VWS V14.01,2013-04-17 03:21:00,
2013-04-16 23:27:00,55.2,44.1,30.12,SSW,206,4.0,6.3,66,0.00,,---,0.00,VWS V14.01,2013-04-17 03:27:00,
2013-04-16 23:32:00,55.2,44.1,30.12,SSW,208,2.7,5.8,66,0.00,,---,0.00,VWS V14.01,2013-04-17 03:32:00,
2013-04-16 23:37:00,55.0,43.9,30.12,SW,222,4.0,6.7,66,0.00,,---,0.00,VWS V14.01,2013-04-17 03:37:00,
2013-04-16 23:42:00,54.9,43.7,30.12,SSE,147,4.5,6.3,66,0.00,,---,0.00,VWS V14.01,2013-04-17 03:42:00,
2013-04-16 23:47:00,54.9,43.7,30.12,SSW,213,3.6,6.7,66,0.00,,---,0.00,VWS V14.01,2013-04-17 03:47:00,
2013-04-16 23:52:00,54.9,44.1,30.12,SSW,192,3.1,7.4,67,0.00,,---,0.00,VWS V14.01,2013-04-17 03:52:00,
2013-04-16 23:57:00,54.9,44.1,30.12,SW,217,4.5,5.8,67,0.00,,---,0.00,VWS V14.01,2013-04-17 03:57:00,